Tatalina, AK

11:12 AM AKDT on September 25, 2017 (GMT -0800)
Tatalina

Weather History for PATL - May, 2014

Change the Weather History Date:

Thursday, May 1, 2014

  Actual Average Record
Temperature  
Mean Temperature 52 °F -  
Max Temperature 64 °F 43 °F 64 °F (2014)
Min Temperature 41 °F 30 °F 18 °F (2012)
Degree Days  
Heating Degree Days 13    
Growing Degree Days 2 (Base 50)    
Moisture  
Dew Point 31 °F    
Average Humidity 43    
Maximum Humidity 67    
Minimum Humidity 28    
Precipitation  
Precipitation 0.00 in - - ()
Sea Level Pressure  
Sea Level Pressure 30.55 in    
Wind  
Wind Speed 4 mph (NW)    
Max Wind Speed 9 mph    
Max Gust Speed -    
Visibility 10 miles    
Events      
Averages and records for this station are not official NWS values.
T = Trace of Precipitation, MM = Missing Value Source: NWS Daily Summary

Daily Weather History Graph

Daily Weather History Graph

Search for Another Location

Airport or City:

Trip Planner

Search our weather history database for the weather conditions in past years. The results will help you decide how hot, cold, wet, or windy it might be!

Date:

Astronomy

May. 01, 2014 Rise Set
Actual Time 6:04 AM AKDT 10:40 PM AKDT
Civil Twilight 5:00 AM AKDT 11:44 PM AKDT
Nautical Twilight 2:53 AM AKDT 1:48 AM AKDT
Astronomical Twilight Sun does not set Sun does not set
Moon 7:39 AM AKDT (5/1) 12:46 AM AKDT (5/1)
Length of Visible Light 18h 43m
Length of Day
16h 35m
Waxing Crescent, 7% of the Moon is Illuminated
May 1
Waxing Crescent
May 6
First Quarter
May 14
Full
May 21
Last Quarter
May 28
New

Hourly Weather History & Observations

Time (AKDT) Temp. Windchill Dew Point Humidity Pressure Visibility Wind Dir Wind Speed Gust Speed Precip Events Conditions
12:55 AM 51.4 °F - 32.7 °F 49% 30.53 in 10.0 mi SW 3.5 mph - N/A   Clear
1:55 AM 51.1 °F - 32.4 °F 49% 30.54 in 10.0 mi WNW 2.3 mph - N/A   Clear
2:55 AM 50.5 °F - 30.2 °F 46% 30.55 in 10.0 mi West 3.5 mph - N/A   Mostly Cloudy
3:55 AM 49.6 °F - 29.3 °F 46% 30.56 in 10.0 mi West 2.3 mph - N/A   Clear
4:55 AM 46.0 °F - 30.4 °F 54% 30.58 in 10.0 mi NNE 2.3 mph - N/A   Clear
5:55 AM 45.1 °F 43.7 °F 31.3 °F 58% 30.58 in 10.0 mi WNW 3.5 mph - N/A   Clear
6:55 AM 41.9 °F 40.0 °F 31.5 °F 66% 30.59 in 10.0 mi ESE 3.5 mph - N/A   Clear
7:55 AM 42.8 °F - 32.4 °F 67% 30.59 in 10.0 mi Variable 1.2 mph - N/A   Clear
8:55 AM 44.8 °F 43.3 °F 33.3 °F 64% 30.60 in 10.0 mi East 3.5 mph - N/A   Clear
9:55 AM 48.0 °F - 33.6 °F 57% 30.61 in 10.0 mi Variable 2.3 mph - N/A   Clear
10:55 AM 52.2 °F - 34.3 °F 51% 30.61 in 10.0 mi Variable 3.5 mph - N/A   Clear
11:55 AM 54.9 °F - 32.7 °F 43% 30.60 in 10.0 mi Variable 3.5 mph - N/A   Clear
12:55 PM 57.9 °F - 29.3 °F 34% 30.60 in 10.0 mi SW 3.5 mph - N/A   Clear
1:55 PM 59.7 °F - 30.9 °F 34% 30.58 in 10.0 mi Variable 1.2 mph - N/A   Clear
2:55 PM 62.2 °F - 32.0 °F 32% 30.56 in 10.0 mi Variable 4.6 mph - N/A   Clear
3:55 PM 62.1 °F - 30.9 °F 31% 30.55 in 10.0 mi Variable 4.6 mph - N/A   Clear
4:55 PM 63.3 °F - 30.4 °F 29% 30.54 in 10.0 mi East 9.2 mph - N/A   Clear
5:55 PM 63.7 °F - 30.2 °F 28% 30.53 in 10.0 mi ESE 6.9 mph - N/A   Clear
6:55 PM 63.9 °F - 31.1 °F 29% 30.52 in 10.0 mi Variable 3.5 mph - N/A   Clear
7:55 PM 63.5 °F - 30.9 °F 29% 30.50 in 10.0 mi Variable 3.5 mph - N/A   Clear
8:55 PM 63.0 °F - 31.1 °F 30% 30.48 in 10.0 mi North 5.8 mph - N/A   Clear
9:55 PM 62.6 °F - 32.0 °F 32% 30.47 in 10.0 mi North 5.8 mph - N/A   Clear
10:55 PM 59.9 °F - 30.2 °F 33% 30.47 in 10.0 mi North 6.9 mph - N/A   Clear
11:55 PM 58.8 °F - 30.4 °F 34% 30.46 in 10.0 mi South 3.5 mph - N/A   Clear